This is the latest recevied weather packets stored in our database for station/object AI9F. If no packets are shown the sender has not sent any weather packets the latest 10 day(s).
| Time | Temp. | Humidity | Pressure | Rain* | Wind** | Luminosity | Snow |
|---|---|---|---|---|---|---|---|
| 1777747580 | 12.78° C | 58% | 1019.5 hPa | 0 mm | - | 281 W/m² | - |
| 1777746972 | 12.22° C | 59% | 1019.5 hPa | 0 mm | - | 190 W/m² | - |
| 1777746363 | 12.22° C | 59% | 1019.4 hPa | 0 mm | - | 135 W/m² | - |
| 1777746059 | 12.22° C | 63% | 1019.5 hPa | 0 mm | - | 114 W/m² | - |
| 1777745757 | 12.22° C | 63% | 1019.3 hPa | 0 mm | - | 124 W/m² | - |
| 1777745456 | 12.78° C | 67% | 1019.5 hPa | 0 mm | - | 104 W/m² | - |
| 1777745152 | 12.78° C | 67% | 1019.3 hPa | 0 mm | - | 111 W/m² | - |
| 1777744849 | 13.33° C | 60% | 1019.4 hPa | 0 mm | - | 174 W/m² | - |
| 1777744543 | 13.33° C | 60% | 1019.6 hPa | 0 mm | - | 229 W/m² | - |
| 1777744239 | 13.89° C | 64% | 1019.4 hPa | 0 mm | - | 389 W/m² | - |
| 1777743937 | 13.33° C | 64% | 1019.5 hPa | 0 mm | - | 892 W/m² | - |
| 1777743331 | 12.22° C | 66% | 1019.7 hPa | 0 mm | - | 414 W/m² | - |
| 1777743029 | 12.22° C | 70% | 1019.6 hPa | 0 mm | - | 387 W/m² | - |
| 1777742726 | 11.67° C | 71% | 1019.8 hPa | 0 mm | - | 278 W/m² | - |
| 1777742422 | 11.11° C | 71% | 1019.7 hPa | 0 mm | - | 249 W/m² | - |
| 1777742118 | 11.67° C | 71% | 1019.9 hPa | 0 mm | - | 125 W/m² | - |
| 1777741816 | 11.67° C | 71% | 1019.9 hPa | 0 mm | - | 70 W/m² | - |
| 1777739389 | 12.78° C | 65% | 1020.2 hPa | 0 mm | - | 200 W/m² | - |
| 1777739085 | 12.22° C | 67% | 1020.2 hPa | 0 mm | - | 305 W/m² | - |
| 1777738783 | 12.22° C | 67% | 1020 hPa | 0 mm | - | 384 W/m² | - |
| 1777738478 | 12.22° C | 67% | 1020.1 hPa | 0 mm | - | 246 W/m² | - |
| 1777738177 | 12.22° C | 71% | 1020.1 hPa | 0 mm | - | 322 W/m² | - |
| 1777737573 | 12.22° C | 66% | 1020 hPa | 0 mm | - | 304 W/m² | - |
| 1777737271 | 11.67° C | 68% | 1020 hPa | 0 mm | - | 387 W/m² | - |
| 1777736967 | 11.67° C | 72% | 1019.9 hPa | 0 mm | - | 255 W/m² | - |
* Rain latest hour (hover to see other rain measurements)
** Current wind speed in m/s (hover to see current wind gust speed)